Location: Charbonni�res
(45.9952°N, 2.9982°E)
Time: 17:55:39
(UTC+00:00)

FALCON 9 DEB - Pass Details

Date: 29 November 2020
Orbit: 376 x 397 km, 53.0° (Epoch: 17 January)

Event Time Altitude Azimuth Distance (km) Brightness Sun altitude
Exits shadow 03:54:06 - 81° (E) 1,597 6.9 -32.9°
Enters shadow 04:53:06 -63° 238° (WSW) 11,756 10.4 -22.7°
Maximum altitude 05:26:58 63° 332° (NNW) 444 2.9 -16.9°
